START_TIME,STEP,MOV.,H8,t_acc.,H43,t_acc.,M25,t_acc.,H9,t_acc.
1981-08-29 09:00:30.130 ,4,0,0.,12.0,0.,12.0,0.,12.0,0.,12.0
1981-08-29 09:00:42.130 ,4,0,0.,12.0,0.,12.0,0.,12.0,0.,12.0
1981-08-29 09:00:54.130 ,3,0,0.,12.0,0.,12.0,0.,12.0,0.,12.0
1981-08-29 09:01:06.130 ,3,0,0.,12.0,0.,12.0,0.,12.0,0.,12.0
1981-08-29 09:01:18.130 ,2,0,0.,12.0,0.,12.0,0.,12.0,0.,12.0
1981-08-29 09:01:30.130 ,2,0,0.,12.0,0.,12.0,0.,12.0,0.,12.0
1981-08-29 09:01:42.130 ,1,0,0.,12.0,0.,12.0,0.,12.0,0.,12.0
1981-08-29 09:01:54.130 ,1,0,0.,12.0,0.,12.0,0.,12.0,0.,12.0
1981-08-29 09:02:06.130 ,0,0,0.,12.0,0.,12.0,0.,12.0,0.,12.0
1981-08-29 09:02:18.130 ,0,0,0.,12.0,0.,12.0,0.,12.0,0.,12.0
1981-08-29 09:02:30.130 ,0,0,0.,12.0,0.,12.0,0.,12.0,0.,12.0
1981-08-29 09:02:42.130 ,0,0,0.,12.0,0.,12.0,0.,12.0,0.,12.0
1981-08-29 09:02:54.130 ,1,0,0.,12.0,0.,12.0,0.,12.0,0.,12.0
1981-08-29 09:03:06.130 ,1,0,0.,12.0,0.,12.0,0.,12.0,0.,12.0
1981-08-29 09:03:18.130 ,2,0,0.,12.0,0.,12.0,0.,12.0,0.,12.0
1981-08-29 09:03:30.130 ,2,0,0.,12.0,0.,12.0,0.,12.0,0.,12.0
1981-08-29 09:03:42.130 ,3,0,0.,12.0,0.,12.0,0.,12.0,0.,12.0
1981-08-29 09:03:54.130 ,3,0,0.,12.0,0.,12.0,0.,12.0,0.,12.0
1981-08-29 09:04:06.130 ,4,0,0.,12.0,0.,12.0,0.,12.0,0.,12.0
1981-08-29 09:04:18.130 ,4,0,0.,12.0,0.,12.0,0.,12.0,0.,12.0
1981-08-29 09:04:30.130 ,5,0,0.,12.0,0.,12.0,0.,12.0,0.,12.0
1981-08-29 09:04:42.130 ,5,0,0.,12.0,0.,12.0,0.,12.0,0.,12.0
1981-08-29 09:04:54.130 ,6,0,0.,12.0,0.,12.0,0.,12.0,0.,12.0
1981-08-29 09:05:06.130 ,6,0,0.,12.0,0.,12.0,0.,12.0,0.,12.0
1981-08-29 09:05:18.130 ,7,0,0.,12.0,0.,12.0,0.,12.0,0.,12.0
1981-08-29 09:05:30.130 ,7,0,0.,12.0,0.,12.0,0.,12.0,0.,12.0
1981-08-29 09:05:42.130 ,7,0,0.,12.0,0.,12.0,0.,12.0,0.,12.0
1981-08-29 09:05:54.130 ,7,0,0.,12.0,0.,12.0,0.,12.0,0.,12.0
1981-08-29 09:06:06.130 ,7,0,0.,12.0,0.,12.0,0.,12.0,0.,12.0
1981-08-29 09:06:18.130 ,7,0,0.,12.0,0.,12.0,0.,12.0,0.,12.0
1981-08-29 09:06:30.130 ,6,0,0.,12.0,0.,12.0,0.,12.0,0.,12.0
1981-08-29 09:06:42.130 ,6,0,0.,12.0,0.,12.0,0.,12.0,0.,12.0
1981-08-29 09:06:54.130 ,6,0,0.,12.0,0.,12.0,0.,12.0,0.,12.0
1981-08-29 09:07:06.130 ,6,0,0.,12.0,0.,12.0,0.,12.0,0.,12.0
1981-08-29 09:07:18.130 ,5,0,0.,12.0,0.,12.0,0.,12.0,0.,12.0
1981-08-29 09:07:30.130 ,5,0,0.,12.0,0.,12.0,0.,12.0,0.,12.0
1981-08-29 09:07:42.130 ,5,0,0.,12.0,0.,12.0,0.,12.0,0.,12.0
1981-08-29 09:07:54.130 ,5,0,0.,12.0,0.,12.0,0.,12.0,0.,12.0
1981-08-29 09:08:06.130 ,4,0,0.,12.0,1.,12.0,0.,12.0,0.,12.0
1981-08-29 09:08:18.130 ,4,0,0.,12.0,0.,12.0,0.,12.0,0.,12.0
1981-08-29 09:08:30.130 ,4,0,0.,12.0,0.,12.0,0.,12.0,0.,12.0
1981-08-29 09:08:42.130 ,4,0,0.,12.0,0.,12.0,0.,12.0,0.,12.0
1981-08-29 09:08:54.130 ,3,0,0.,12.0,0.,12.0,0.,12.0,0.,12.0
1981-08-29 09:09:06.130 ,3,0,0.,12.0,0.,12.0,0.,12.0,0.,12.0
1981-08-29 09:09:18.130 ,3,0,0.,12.0,0.,12.0,0.,12.0,0.,12.0
1981-08-29 09:09:30.130 ,3,0,0.,12.0,0.,12.0,0.,12.0,0.,12.0
1981-08-29 09:09:42.130 ,2,0,0.,12.0,0.,12.0,0.,12.0,0.,12.0
1981-08-29 09:09:54.130 ,2,0,0.,12.0,0.,12.0,0.,12.0,0.,12.0
1981-08-29 09:10:06.130 ,2,0,0.,12.0,0.,12.0,0.,12.0,0.,12.0
1981-08-29 09:10:18.130 ,2,0,0.,12.0,0.,12.0,0.,12.0,0.,12.0
1981-08-29 09:10:30.130 ,1,0,0.,12.0,0.,12.0,0.,12.0,0.,12.0
1981-08-29 09:10:42.130 ,1,0,0.,12.0,0.,12.0,0.,12.0,0.,12.0
1981-08-29 09:10:54.130 ,1,0,0.,12.0,0.,12.0,0.,12.0,0.,12.0
1981-08-29 09:11:06.130 ,1,0,0.,12.0,0.,12.0,0.,12.0,0.,12.0
1981-08-29 09:11:18.130 ,0,0,0.,12.0,0.,12.0,0.,12.0,0.,12.0
1981-08-29 09:11:30.130 ,0,0,0.,12.0,0.,12.0,0.,12.0,0.,12.0
1981-08-29 09:11:42.130 ,0,0,0.,12.0,0.,12.0,0.,12.0,0.,12.0
1981-08-29 09:11:54.130 ,0,0,0.,12.0,0.,12.0,0.,12.0,0.,12.0
1981-08-29 09:12:06.130 ,0,0,0.,12.0,0.,12.0,0.,12.0,0.,12.0
1981-08-29 09:12:18.130 ,0,0,0.,12.0,0.,12.0,0.,12.0,0.,12.0
1981-08-29 09:12:30.130 ,0,0,0.,12.0,0.,12.0,0.,12.0,0.,12.0
1981-08-29 09:12:42.130 ,0,0,0.,12.0,0.,12.0,0.,12.0,0.,12.0
1981-08-29 09:12:54.130 ,1,0,0.,12.0,0.,12.0,0.,12.0,0.,12.0
1981-08-29 09:13:06.130 ,1,0,0.,12.0,0.,12.0,0.,12.0,0.,12.0
1981-08-29 09:13:18.130 ,1,0,0.,12.0,0.,12.0,0.,12.0,0.,12.0
1981-08-29 09:13:30.130 ,1,0,0.,12.0,0.,12.0,0.,12.0,0.,12.0
1981-08-29 09:13:42.130 ,2,0,0.,12.0,0.,12.0,0.,12.0,0.,12.0
1981-08-29 09:13:54.130 ,2,0,0.,12.0,0.,12.0,0.,12.0,0.,12.0
1981-08-29 09:14:06.130 ,2,0,0.,12.0,0.,12.0,0.,12.0,0.,12.0
1981-08-29 09:14:18.130 ,2,0,0.,12.0,0.,12.0,0.,12.0,0.,12.0
1981-08-29 09:14:30.130 ,3,0,0.,12.0,0.,12.0,0.,12.0,0.,12.0
1981-08-29 09:14:42.130 ,3,0,0.,12.0,0.,12.0,0.,12.0,0.,12.0
1981-08-29 09:14:54.130 ,3,0,0.,12.0,0.,12.0,0.,12.0,0.,12.0
1981-08-29 09:15:06.130 ,3,0,0.,12.0,0.,12.0,0.,12.0,0.,12.0
1981-08-29 09:15:18.130 ,4,0,0.,12.0,0.,12.0,0.,12.0,0.,12.0
1981-08-29 09:15:30.130 ,4,0,0.,12.0,0.,12.0,0.,12.0,0.,12.0
1981-08-29 09:15:42.130 ,4,0,0.,12.0,0.,12.0,0.,12.0,0.,12.0
1981-08-29 09:15:54.130 ,4,0,0.,12.0,0.,12.0,0.,12.0,0.,12.0
1981-08-29 09:16:06.130 ,5,0,0.,12.0,0.,12.0,0.,12.0,0.,12.0
1981-08-29 09:16:18.130 ,5,0,0.,12.0,0.,12.0,0.,12.0,0.,12.0
1981-08-29 09:16:30.130 ,5,0,0.,12.0,0.,12.0,0.,12.0,0.,12.0
1981-08-29 09:16:42.130 ,5,0,0.,12.0,0.,12.0,0.,12.0,0.,12.0
1981-08-29 09:16:54.130 ,6,0,0.,12.0,0.,12.0,0.,12.0,0.,12.0
1981-08-29 09:17:06.130 ,6,0,0.,12.0,0.,12.0,0.,12.0,0.,12.0
1981-08-29 09:17:18.130 ,6,0,0.,12.0,0.,12.0,0.,12.0,0.,12.0
1981-08-29 09:17:30.130 ,6,0,0.,12.0,0.,12.0,0.,12.0,0.,12.0
1981-08-29 09:17:42.130 ,7,0,0.,12.0,0.,12.0,0.,12.0,0.,12.0
1981-08-29 09:17:54.130 ,7,0,0.,12.0,0.,12.0,0.,12.0,0.,12.0
1981-08-29 09:18:06.130 ,7,0,0.,12.0,0.,12.0,0.,12.0,0.,12.0
1981-08-29 09:18:18.130 ,7,0,0.,12.0,0.,12.0,0.,12.0,0.,12.0
1981-08-29 09:18:30.130 ,7,0,0.,12.0,0.,12.0,0.,12.0,0.,12.0
1981-08-29 09:18:42.130 ,7,0,0.,12.0,0.,12.0,0.,12.0,0.,12.0
1981-08-29 09:18:54.130 ,6,0,0.,12.0,0.,12.0,0.,12.0,0.,12.0
1981-08-29 09:19:06.130 ,6,0,0.,12.0,0.,12.0,0.,12.0,0.,12.0
1981-08-29 09:19:18.130 ,5,0,0.,12.0,0.,12.0,0.,12.0,0.,12.0
1981-08-29 09:19:30.130 ,5,0,0.,12.0,0.,12.0,0.,12.0,0.,12.0
1981-08-29 09:19:42.130 ,4,0,0.,12.0,0.,12.0,0.,12.0,0.,12.0
1981-08-29 09:19:54.130 ,4,0,0.,12.0,0.,12.0,0.,12.0,0.,12.0
1981-08-29 09:20:06.130 ,3,0,0.,12.0,0.,12.0,0.,12.0,0.,12.0
1981-08-29 09:20:18.130 ,3,0,0.,12.0,0.,12.0,0.,12.0,0.,12.0
1981-08-29 09:20:30.130 ,2,0,0.,12.0,0.,12.0,0.,12.0,0.,12.0
1981-08-29 09:20:42.130 ,2,0,0.,12.0,0.,12.0,0.,12.0,0.,12.0
1981-08-29 09:20:54.130 ,1,0,0.,12.0,0.,12.0,0.,12.0,0.,12.0
1981-08-29 09:21:06.130 ,1,0,0.,12.0,0.,12.0,0.,12.0,0.,12.0
1981-08-29 09:21:18.130 ,0,0,0.,12.0,0.,12.0,0.,12.0,0.,12.0
1981-08-29 09:21:30.130 ,0,0,0.,12.0,0.,12.0,0.,12.0,0.,12.0
1981-08-29 09:21:42.130 ,0,0,0.,12.0,0.,12.0,0.,12.0,0.,12.0
1981-08-29 09:21:54.130 ,0,0,0.,12.0,0.,12.0,0.,12.0,0.,12.0
1981-08-29 09:22:06.130 ,1,0,0.,12.0,0.,12.0,0.,12.0,0.,12.0
1981-08-29 09:22:18.130 ,1,0,0.,12.0,0.,12.0,0.,12.0,0.,12.0
1981-08-29 09:22:30.130 ,2,0,0.,12.0,0.,12.0,0.,12.0,0.,12.0
1981-08-29 09:22:42.130 ,2,0,0.,12.0,0.,12.0,0.,12.0,0.,12.0
1981-08-29 09:22:54.130 ,3,0,0.,12.0,0.,12.0,0.,12.0,0.,12.0
1981-08-29 09:23:06.130 ,3,0,0.,12.0,0.,12.0,0.,12.0,0.,12.0
1981-08-29 09:23:18.130 ,4,0,0.,12.0,0.,12.0,0.,12.0,0.,12.0
1981-08-29 09:23:30.130 ,4,0,0.,12.0,0.,12.0,0.,12.0,0.,12.0
1981-08-29 09:23:42.130 ,5,0,0.,12.0,0.,12.0,0.,12.0,0.,12.0
1981-08-29 09:23:54.130 ,5,0,0.,12.0,0.,12.0,0.,12.0,0.,12.0
1981-08-29 09:24:06.130 ,6,0,0.,12.0,0.,12.0,0.,12.0,0.,12.0
1981-08-29 09:24:18.130 ,6,0,0.,12.0,0.,12.0,0.,12.0,0.,12.0
1981-08-29 09:24:30.130 ,7,0,0.,12.0,0.,12.0,0.,12.0,0.,12.0
1981-08-29 09:24:42.130 ,7,0,0.,12.0,0.,12.0,0.,12.0,0.,12.0
1981-08-29 09:24:54.130 ,7,0,0.,12.0,0.,12.0,0.,12.0,0.,12.0
1981-08-29 09:25:06.130 ,7,0,0.,12.0,0.,12.0,0.,12.0,0.,12.0
1981-08-29 09:25:18.130 ,7,0,0.,12.0,0.,12.0,0.,12.0,0.,12.0
1981-08-29 09:25:30.130 ,7,0,0.,12.0,0.,12.0,0.,12.0,0.,12.0
1981-08-29 09:25:42.130 ,6,0,0.,12.0,0.,12.0,0.,12.0,0.,12.0
1981-08-29 09:25:54.130 ,6,0,0.,12.0,0.,12.0,0.,12.0,0.,12.0
1981-08-29 09:26:06.130 ,6,0,0.,12.0,0.,12.0,0.,12.0,0.,12.0
1981-08-29 09:26:18.130 ,6,0,0.,12.0,0.,12.0,0.,12.0,0.,12.0
1981-08-29 09:26:30.130 ,5,0,0.,12.0,0.,12.0,0.,12.0,0.,12.0
1981-08-29 09:26:42.130 ,5,0,0.,12.0,0.,12.0,0.,12.0,0.,12.0
1981-08-29 09:26:54.130 ,5,0,0.,12.0,0.,12.0,0.,12.0,0.,12.0
1981-08-29 09:27:06.130 ,5,0,0.,12.0,0.,12.0,0.,12.0,0.,12.0
1981-08-29 09:27:18.130 ,4,0,0.,12.0,0.,12.0,0.,12.0,0.,12.0
1981-08-29 09:27:30.130 ,4,0,0.,12.0,0.,12.0,0.,12.0,0.,12.0
1981-08-29 09:27:42.130 ,4,0,0.,12.0,0.,12.0,0.,12.0,0.,12.0
1981-08-29 09:27:54.130 ,4,0,0.,12.0,0.,12.0,0.,12.0,0.,12.0
1981-08-29 09:28:06.130 ,3,0,0.,12.0,0.,12.0,0.,12.0,0.,12.0
1981-08-29 09:28:18.130 ,3,0,0.,12.0,0.,12.0,0.,12.0,0.,12.0
1981-08-29 09:28:30.130 ,3,0,0.,12.0,0.,12.0,0.,12.0,0.,12.0
1981-08-29 09:28:42.130 ,3,0,0.,12.0,0.,12.0,0.,12.0,0.,12.0
1981-08-29 09:28:54.130 ,2,0,0.,12.0,0.,12.0,0.,12.0,0.,12.0
1981-08-29 09:29:06.130 ,2,0,0.,12.0,0.,12.0,0.,12.0,0.,12.0
1981-08-29 09:29:18.130 ,2,0,0.,12.0,0.,12.0,0.,12.0,0.,12.0
1981-08-29 09:29:30.130 ,2,0,0.,12.0,0.,12.0,0.,12.0,0.,12.0
1981-08-29 09:29:42.130 ,1,0,0.,12.0,0.,12.0,0.,12.0,0.,12.0
1981-08-29 09:29:54.130 ,1,0,0.,12.0,0.,12.0,0.,12.0,0.,12.0
1981-08-29 09:30:06.130 ,1,0,0.,12.0,0.,12.0,0.,12.0,0.,12.0
1981-08-29 09:30:18.130 ,1,0,0.,12.0,0.,12.0,0.,12.0,0.,12.0
1981-08-29 09:30:30.130 ,0,0,0.,12.0,0.,12.0,0.,12.0,0.,12.0
1981-08-29 09:30:42.130 ,0,0,0.,12.0,0.,12.0,0.,12.0,0.,12.0
1981-08-29 09:30:54.130 ,0,0,0.,12.0,0.,12.0,0.,12.0,0.,12.0
1981-08-29 09:31:06.130 ,0,0,0.,12.0,0.,12.0,0.,12.0,0.,12.0
1981-08-29 09:31:18.130 ,0,0,0.,12.0,0.,12.0,0.,12.0,0.,12.0
1981-08-29 09:31:30.130 ,0,0,0.,12.0,0.,12.0,0.,12.0,0.,12.0
1981-08-29 09:31:42.130 ,0,0,0.,12.0,0.,12.0,0.,12.0,0.,12.0
1981-08-29 09:31:54.130 ,0,0,0.,12.0,0.,12.0,0.,12.0,0.,12.0
1981-08-29 09:32:06.130 ,1,0,0.,12.0,0.,12.0,0.,12.0,0.,12.0
1981-08-29 09:32:18.130 ,1,0,0.,12.0,0.,12.0,0.,12.0,0.,12.0
1981-08-29 09:32:30.130 ,1,0,0.,12.0,0.,12.0,0.,12.0,0.,12.0
1981-08-29 09:32:42.130 ,1,0,0.,12.0,0.,12.0,0.,12.0,0.,12.0
1981-08-29 09:32:54.130 ,2,0,0.,12.0,0.,12.0,0.,12.0,0.,12.0
1981-08-29 09:33:06.130 ,2,0,0.,12.0,0.,12.0,0.,12.0,0.,12.0
1981-08-29 09:33:18.130 ,2,0,0.,12.0,0.,12.0,0.,12.0,0.,12.0
1981-08-29 09:33:30.130 ,2,0,0.,12.0,0.,12.0,0.,12.0,0.,12.0
1981-08-29 09:33:42.130 ,3,0,0.,12.0,0.,12.0,0.,12.0,0.,12.0
1981-08-29 09:33:54.130 ,3,0,0.,12.0,0.,12.0,0.,12.0,0.,12.0
1981-08-29 09:34:06.130 ,3,0,0.,12.0,0.,12.0,0.,12.0,0.,12.0
1981-08-29 09:34:18.130 ,3,0,0.,12.0,0.,12.0,0.,12.0,0.,12.0
1981-08-29 09:34:30.130 ,4,0,0.,12.0,0.,12.0,0.,12.0,0.,12.0
1981-08-29 09:34:42.130 ,4,0,0.,12.0,0.,12.0,0.,12.0,0.,12.0
1981-08-29 09:34:54.130 ,4,0,0.,12.0,0.,12.0,0.,12.0,0.,12.0
1981-08-29 09:35:06.130 ,4,0,0.,12.0,0.,12.0,0.,12.0,0.,12.0
1981-08-29 09:35:18.130 ,5,0,0.,12.0,0.,12.0,0.,12.0,0.,12.0
1981-08-29 09:35:30.130 ,5,0,0.,12.0,0.,12.0,0.,12.0,0.,12.0
1981-08-29 09:35:42.130 ,5,0,0.,12.0,0.,12.0,0.,12.0,0.,12.0
1981-08-29 09:35:54.130 ,5,0,0.,12.0,0.,12.0,0.,12.0,0.,12.0
1981-08-29 09:36:06.130 ,6,0,0.,12.0,0.,12.0,0.,12.0,0.,12.0
1981-08-29 09:36:18.130 ,6,0,0.,12.0,0.,12.0,0.,12.0,0.,12.0
1981-08-29 09:36:30.130 ,6,0,0.,12.0,0.,12.0,0.,12.0,0.,12.0
1981-08-29 09:36:42.130 ,6,0,0.,12.0,0.,12.0,0.,12.0,0.,12.0
1981-08-29 09:36:54.130 ,7,0,0.,12.0,0.,12.0,0.,12.0,0.,12.0
1981-08-29 09:37:06.130 ,7,0,0.,12.0,0.,12.0,0.,12.0,0.,12.0
1981-08-29 09:37:18.130 ,7,0,0.,12.0,0.,12.0,0.,12.0,0.,12.0
1981-08-29 09:37:30.130 ,7,0,0.,12.0,0.,12.0,0.,12.0,0.,12.0
1981-08-29 09:37:42.130 ,7,0,0.,12.0,0.,12.0,0.,12.0,0.,12.0
1981-08-29 09:37:54.130 ,7,0,0.,12.0,0.,12.0,0.,12.0,0.,12.0
1981-08-29 09:38:06.130 ,6,0,0.,12.0,0.,12.0,0.,12.0,0.,12.0
1981-08-29 09:38:18.130 ,6,0,0.,12.0,0.,12.0,0.,12.0,0.,12.0
1981-08-29 09:38:30.130 ,5,0,0.,12.0,0.,12.0,0.,12.0,0.,12.0
1981-08-29 09:38:42.130 ,5,0,0.,12.0,0.,12.0,0.,12.0,0.,12.0
1981-08-29 09:38:54.130 ,4,0,0.,12.0,0.,12.0,0.,12.0,0.,12.0
1981-08-29 09:39:06.130 ,4,0,0.,12.0,0.,12.0,0.,12.0,0.,12.0
1981-08-29 09:39:18.130 ,3,0,0.,12.0,0.,12.0,0.,12.0,0.,12.0
1981-08-29 09:39:30.130 ,3,0,0.,12.0,0.,12.0,0.,12.0,0.,12.0
1981-08-29 09:39:42.130 ,2,0,0.,12.0,0.,12.0,0.,12.0,0.,12.0
1981-08-29 09:39:54.130 ,2,0,0.,12.0,0.,12.0,0.,12.0,0.,12.0
1981-08-29 09:40:06.130 ,1,0,0.,12.0,0.,12.0,0.,12.0,0.,12.0
1981-08-29 09:40:18.130 ,1,0,0.,12.0,0.,12.0,0.,12.0,0.,12.0
1981-08-29 09:40:30.130 ,0,0,0.,12.0,0.,12.0,0.,12.0,0.,12.0
1981-08-29 09:40:42.130 ,0,0,0.,12.0,0.,12.0,0.,12.0,0.,12.0
1981-08-29 09:40:54.130 ,0,0,0.,12.0,0.,12.0,0.,12.0,0.,12.0
1981-08-29 09:41:06.130 ,0,0,0.,12.0,0.,12.0,0.,12.0,0.,12.0
1981-08-29 09:41:18.130 ,1,0,0.,12.0,0.,12.0,0.,12.0,0.,12.0
1981-08-29 09:41:30.130 ,1,0,0.,12.0,0.,12.0,0.,12.0,0.,12.0
1981-08-29 09:41:42.130 ,2,0,0.,12.0,0.,12.0,0.,12.0,0.,12.0
1981-08-29 09:41:54.130 ,2,0,0.,12.0,0.,12.0,0.,12.0,0.,12.0
1981-08-29 09:42:06.130 ,3,0,0.,12.0,0.,12.0,0.,12.0,0.,12.0
1981-08-29 09:42:18.130 ,3,0,0.,12.0,0.,12.0,0.,12.0,0.,12.0
1981-08-29 09:42:30.130 ,4,0,0.,12.0,0.,12.0,0.,12.0,0.,12.0
1981-08-29 09:42:42.130 ,4,0,0.,12.0,0.,12.0,0.,12.0,0.,12.0
1981-08-29 09:42:54.130 ,5,0,0.,12.0,0.,12.0,0.,12.0,0.,12.0
1981-08-29 09:43:06.130 ,5,0,0.,12.0,0.,12.0,0.,12.0,0.,12.0
1981-08-29 09:43:18.130 ,6,0,0.,12.0,0.,12.0,0.,12.0,0.,12.0
1981-08-29 09:43:30.130 ,6,0,0.,12.0,0.,12.0,0.,12.0,0.,12.0
1981-08-29 09:43:42.130 ,7,0,0.,12.0,0.,12.0,0.,12.0,0.,12.0
1981-08-29 09:43:54.130 ,7,0,0.,12.0,0.,12.0,0.,12.0,0.,12.0
1981-08-29 09:44:06.130 ,7,0,0.,12.0,0.,12.0,0.,12.0,0.,12.0
1981-08-29 09:44:18.130 ,7,0,0.,12.0,0.,12.0,0.,12.0,0.,12.0
1981-08-29 09:44:30.130 ,7,0,0.,12.0,0.,12.0,0.,12.0,0.,12.0
1981-08-29 09:44:42.130 ,7,0,0.,12.0,0.,12.0,0.,12.0,0.,12.0
1981-08-29 09:44:54.130 ,6,0,0.,12.0,0.,12.0,0.,12.0,0.,12.0
1981-08-29 09:45:06.130 ,6,0,0.,12.0,0.,12.0,0.,12.0,0.,12.0
1981-08-29 09:45:18.130 ,6,0,0.,12.0,0.,12.0,0.,12.0,0.,12.0
1981-08-29 09:45:30.130 ,6,0,0.,12.0,0.,12.0,0.,12.0,0.,12.0
1981-08-29 09:45:42.130 ,5,0,0.,12.0,0.,12.0,0.,12.0,0.,12.0
1981-08-29 09:45:54.130 ,5,0,0.,12.0,0.,12.0,0.,12.0,0.,12.0
1981-08-29 09:46:06.130 ,5,0,0.,12.0,0.,12.0,0.,12.0,0.,12.0
1981-08-29 09:46:18.130 ,5,0,0.,12.0,0.,12.0,0.,12.0,0.,12.0
1981-08-29 09:46:30.130 ,4,0,0.,12.0,0.,12.0,0.,12.0,0.,12.0
1981-08-29 09:46:42.130 ,4,0,0.,12.0,0.,12.0,0.,12.0,0.,12.0
1981-08-29 09:46:54.130 ,4,0,0.,12.0,0.,12.0,0.,12.0,0.,12.0
1981-08-29 09:47:06.130 ,4,0,0.,12.0,0.,12.0,0.,12.0,0.,12.0
1981-08-29 09:47:18.130 ,3,0,0.,12.0,0.,12.0,0.,12.0,0.,12.0
1981-08-29 09:47:30.130 ,3,0,0.,12.0,0.,12.0,0.,12.0,0.,12.0
1981-08-29 09:47:42.130 ,3,0,0.,12.0,0.,12.0,0.,12.0,0.,12.0
1981-08-29 09:47:54.130 ,3,0,0.,12.0,0.,12.0,0.,12.0,0.,12.0
1981-08-29 09:48:06.130 ,2,0,0.,12.0,0.,12.0,0.,12.0,0.,12.0
1981-08-29 09:48:18.130 ,2,0,0.,12.0,0.,12.0,0.,12.0,0.,12.0
1981-08-29 09:48:30.130 ,2,0,0.,12.0,0.,12.0,0.,12.0,0.,12.0
1981-08-29 09:48:42.130 ,2,0,0.,12.0,0.,12.0,0.,12.0,0.,12.0
1981-08-29 09:48:54.130 ,1,0,0.,12.0,0.,12.0,0.,12.0,0.,12.0
1981-08-29 09:49:06.130 ,1,0,0.,12.0,0.,12.0,0.,12.0,0.,12.0
1981-08-29 09:49:18.130 ,1,0,0.,12.0,0.,12.0,0.,12.0,0.,12.0
1981-08-29 09:49:30.130 ,1,0,0.,12.0,0.,12.0,0.,12.0,0.,12.0
1981-08-29 09:49:42.130 ,0,0,0.,12.0,0.,12.0,0.,12.0,0.,12.0
1981-08-29 09:49:54.130 ,0,0,0.,12.0,0.,12.0,0.,12.0,0.,12.0
1981-08-29 09:50:06.130 ,0,0,0.,12.0,0.,12.0,0.,12.0,0.,12.0
1981-08-29 09:50:18.130 ,0,0,0.,12.0,0.,12.0,0.,12.0,0.,12.0
1981-08-29 09:50:30.130 ,0,0,0.,12.0,0.,12.0,0.,12.0,0.,12.0
1981-08-29 09:50:42.130 ,0,0,0.,12.0,0.,12.0,0.,12.0,0.,12.0
1981-08-29 09:50:54.130 ,0,0,0.,12.0,0.,12.0,0.,12.0,0.,12.0
1981-08-29 09:51:06.130 ,0,0,0.,12.0,0.,12.0,0.,12.0,0.,12.0
1981-08-29 09:51:18.130 ,1,0,0.,12.0,0.,12.0,0.,12.0,0.,12.0
1981-08-29 09:51:30.130 ,1,0,0.,12.0,0.,12.0,0.,12.0,0.,12.0
1981-08-29 09:51:42.130 ,1,0,0.,12.0,0.,12.0,0.,12.0,0.,12.0
1981-08-29 09:51:54.130 ,1,0,0.,12.0,0.,12.0,0.,12.0,0.,12.0
1981-08-29 09:52:06.130 ,2,0,0.,12.0,0.,12.0,0.,12.0,0.,12.0
1981-08-29 09:52:18.130 ,2,0,0.,12.0,0.,12.0,0.,12.0,0.,12.0
1981-08-29 09:52:30.130 ,2,0,0.,12.0,0.,12.0,0.,12.0,0.,12.0
1981-08-29 09:52:42.130 ,2,0,0.,12.0,0.,12.0,0.,12.0,0.,12.0
1981-08-29 09:52:54.130 ,3,0,0.,12.0,0.,12.0,0.,12.0,0.,12.0
1981-08-29 09:53:06.130 ,3,0,0.,12.0,0.,12.0,0.,12.0,0.,12.0
1981-08-29 09:53:18.130 ,3,0,0.,12.0,0.,12.0,0.,12.0,0.,12.0
1981-08-29 09:53:30.130 ,3,0,0.,12.0,0.,12.0,0.,12.0,0.,12.0
1981-08-29 09:53:42.130 ,4,0,0.,12.0,0.,12.0,0.,12.0,0.,12.0
1981-08-29 09:53:54.130 ,4,0,0.,12.0,0.,12.0,0.,12.0,0.,12.0
1981-08-29 09:54:06.130 ,4,0,0.,12.0,0.,12.0,0.,12.0,0.,12.0
1981-08-29 09:54:18.130 ,4,0,0.,12.0,0.,12.0,0.,12.0,0.,12.0
1981-08-29 09:54:30.130 ,5,0,0.,12.0,0.,12.0,0.,12.0,0.,12.0
1981-08-29 09:54:42.130 ,5,0,0.,12.0,0.,12.0,0.,12.0,0.,12.0
1981-08-29 09:54:54.130 ,5,0,0.,12.0,0.,12.0,0.,12.0,0.,12.0
1981-08-29 09:55:06.130 ,5,0,0.,12.0,0.,12.0,0.,12.0,0.,12.0
1981-08-29 09:55:18.130 ,6,0,0.,12.0,0.,12.0,0.,12.0,0.,12.0
1981-08-29 09:55:30.130 ,6,0,0.,12.0,0.,12.0,0.,12.0,0.,12.0
1981-08-29 09:55:42.130 ,6,0,0.,12.0,0.,12.0,0.,12.0,0.,12.0
1981-08-29 09:55:54.130 ,6,0,0.,12.0,0.,12.0,0.,12.0,0.,12.0
1981-08-29 09:56:06.130 ,7,0,0.,12.0,0.,12.0,0.,12.0,0.,12.0
1981-08-29 09:56:18.130 ,7,0,0.,12.0,0.,12.0,0.,12.0,0.,12.0
1981-08-29 09:56:30.130 ,7,0,0.,12.0,0.,12.0,0.,12.0,0.,12.0
1981-08-29 09:56:42.130 ,7,0,0.,12.0,0.,12.0,0.,12.0,0.,12.0
1981-08-29 09:56:54.130 ,7,0,0.,12.0,0.,12.0,0.,12.0,0.,12.0
1981-08-29 09:57:06.130 ,7,0,0.,12.0,0.,12.0,0.,12.0,0.,12.0
1981-08-29 09:57:18.130 ,6,0,0.,12.0,0.,12.0,0.,12.0,0.,12.0
1981-08-29 09:57:30.130 ,6,0,0.,12.0,0.,12.0,0.,12.0,0.,12.0
1981-08-29 09:57:42.130 ,5,0,0.,12.0,0.,12.0,0.,12.0,0.,12.0
1981-08-29 09:57:54.130 ,5,0,0.,12.0,0.,12.0,0.,12.0,0.,12.0
1981-08-29 09:58:06.130 ,4,0,0.,12.0,0.,12.0,0.,12.0,0.,12.0
1981-08-29 09:58:18.130 ,4,0,0.,12.0,0.,12.0,0.,12.0,0.,12.0
1981-08-29 09:58:30.130 ,3,0,0.,12.0,0.,12.0,0.,12.0,0.,12.0
1981-08-29 09:58:42.130 ,3,0,0.,12.0,0.,12.0,0.,12.0,0.,12.0
1981-08-29 09:58:54.130 ,2,0,0.,12.0,0.,12.0,0.,12.0,0.,12.0
1981-08-29 09:59:06.130 ,2,0,0.,12.0,0.,12.0,0.,12.0,0.,12.0
1981-08-29 09:59:18.130 ,1,0,0.,12.0,0.,12.0,0.,12.0,0.,12.0
1981-08-29 09:59:30.130 ,1,0,0.,12.0,0.,12.0,0.,12.0,0.,12.0
1981-08-29 09:59:42.130 ,0,0,0.,12.0,0.,12.0,0.,12.0,0.,12.0
1981-08-29 09:59:54.130 ,0,0,0.,12.0,0.,12.0,0.,12.0,0.,12.0
1981-08-29 10:00:06.130 ,0,0,0.,12.0,0.,12.0,0.,12.0,0.,12.0
1981-08-29 10:00:18.130 ,0,0,0.,12.0,0.,12.0,0.,12.0,0.,12.0
1981-08-29 10:00:30.130 ,1,0,0.,12.0,0.,12.0,0.,12.0,0.,12.0
1981-08-29 10:00:42.130 ,1,0,0.,12.0,0.,12.0,0.,12.0,0.,12.0
1981-08-29 10:00:54.130 ,2,0,0.,12.0,0.,12.0,0.,12.0,0.,12.0
1981-08-29 10:01:06.130 ,2,0,0.,12.0,0.,12.0,0.,12.0,0.,12.0
1981-08-29 10:01:18.130 ,3,0,0.,12.0,0.,12.0,0.,12.0,0.,12.0
1981-08-29 10:01:30.130 ,3,0,0.,12.0,0.,12.0,0.,12.0,0.,12.0
1981-08-29 10:01:42.130 ,4,0,0.,12.0,0.,12.0,0.,12.0,0.,12.0
1981-08-29 10:01:54.130 ,4,0,0.,12.0,0.,12.0,0.,12.0,0.,12.0
1981-08-29 10:02:06.130 ,5,0,0.,12.0,0.,12.0,0.,12.0,0.,12.0
1981-08-29 10:02:18.130 ,5,0,0.,12.0,0.,12.0,0.,12.0,0.,12.0
1981-08-29 10:02:30.130 ,6,0,0.,12.0,0.,12.0,0.,12.0,0.,12.0
1981-08-29 10:02:42.130 ,6,0,0.,12.0,0.,12.0,0.,12.0,0.,12.0
1981-08-29 10:02:54.130 ,7,0,0.,12.0,0.,12.0,0.,12.0,0.,12.0
1981-08-29 10:03:06.130 ,7,0,0.,12.0,0.,12.0,0.,12.0,0.,12.0
1981-08-29 10:03:18.130 ,7,0,0.,12.0,0.,12.0,0.,12.0,0.,12.0
1981-08-29 10:03:30.130 ,7,0,0.,12.0,0.,12.0,0.,12.0,0.,12.0
1981-08-29 10:03:42.130 ,7,0,0.,12.0,0.,12.0,0.,12.0,0.,12.0
1981-08-29 10:03:54.130 ,7,0,0.,12.0,0.,12.0,0.,12.0,0.,12.0
1981-08-29 10:04:06.130 ,6,0,0.,12.0,0.,12.0,0.,12.0,0.,12.0
1981-08-29 10:04:18.130 ,6,0,0.,12.0,0.,12.0,0.,12.0,0.,12.0
1981-08-29 10:04:30.130 ,6,0,0.,12.0,0.,12.0,0.,12.0,0.,12.0
1981-08-29 10:04:42.130 ,6,0,0.,12.0,0.,12.0,0.,12.0,0.,12.0
1981-08-29 10:04:54.130 ,5,0,0.,12.0,0.,12.0,0.,12.0,0.,12.0
1981-08-29 10:05:06.130 ,5,0,0.,12.0,0.,12.0,0.,12.0,0.,12.0
1981-08-29 10:05:18.130 ,5,0,0.,12.0,0.,12.0,0.,12.0,0.,12.0
1981-08-29 10:05:30.130 ,5,0,0.,12.0,0.,12.0,0.,12.0,0.,12.0
1981-08-29 10:05:42.130 ,4,0,0.,12.0,0.,12.0,0.,12.0,0.,12.0
1981-08-29 10:05:54.130 ,4,0,0.,12.0,0.,12.0,0.,12.0,0.,12.0
1981-08-29 10:06:06.130 ,4,0,0.,12.0,0.,12.0,0.,12.0,0.,12.0
1981-08-29 10:06:18.130 ,4,0,0.,12.0,0.,12.0,0.,12.0,0.,12.0
1981-08-29 10:06:30.130 ,3,0,0.,12.0,0.,12.0,0.,12.0,0.,12.0
1981-08-29 10:06:42.130 ,3,0,0.,12.0,0.,12.0,0.,12.0,0.,12.0
1981-08-29 10:06:54.130 ,3,0,0.,12.0,0.,12.0,0.,12.0,0.,12.0
1981-08-29 10:07:06.130 ,3,0,0.,12.0,0.,12.0,0.,12.0,0.,12.0
1981-08-29 10:07:18.130 ,2,0,0.,12.0,0.,12.0,0.,12.0,0.,12.0
1981-08-29 10:07:30.130 ,2,0,0.,12.0,0.,12.0,0.,12.0,0.,12.0
1981-08-29 10:07:42.130 ,2,0,0.,12.0,0.,12.0,0.,12.0,0.,12.0
1981-08-29 10:07:54.130 ,2,0,0.,12.0,0.,12.0,0.,12.0,0.,12.0
1981-08-29 10:08:06.130 ,1,0,0.,12.0,0.,12.0,0.,12.0,0.,12.0
1981-08-29 10:08:18.130 ,1,0,0.,12.0,0.,12.0,0.,12.0,0.,12.0
1981-08-29 10:08:30.130 ,1,0,0.,12.0,0.,12.0,0.,12.0,0.,12.0
1981-08-29 10:08:42.130 ,1,0,0.,12.0,0.,12.0,0.,12.0,0.,12.0
1981-08-29 10:08:54.130 ,0,0,0.,12.0,0.,12.0,0.,12.0,0.,12.0
1981-08-29 10:09:06.130 ,0,0,0.,12.0,0.,12.0,0.,12.0,0.,12.0
1981-08-29 10:09:18.130 ,0,0,0.,12.0,0.,12.0,0.,12.0,0.,12.0
1981-08-29 10:09:30.130 ,0,0,0.,12.0,0.,12.0,0.,12.0,0.,12.0
1981-08-29 10:13:37.330 ,0,0,,0,,0,,0,,0
1981-08-29 10:13:49.330 ,0,0,,0,,0,,0,,0
1981-08-29 10:13:42.130 ,5,0,0.,12.0,0.,12.0,0.,12.0,0.,12.0
1981-08-29 10:13:54.130 ,5,0,0.,12.0,0.,12.0,0.,12.0,0.,12.0
1981-08-29 10:14:06.130 ,5,0,0.,12.0,0.,12.0,0.,12.0,0.,12.0
1981-08-29 10:14:18.130 ,5,0,0.,12.0,0.,12.0,0.,12.0,0.,12.0
1981-08-29 10:15:18.130 ,0,0,0.,12.0,0.,12.0,0.,12.0,0.,12.0
1981-08-29 10:15:30.130 ,0,0,0.,12.0,0.,12.0,0.,12.0,0.,12.0
1981-08-29 10:15:42.130 ,0,0,0.,12.0,0.,12.0,0.,12.0,0.,12.0
1981-08-29 10:15:54.130 ,0,0,0.,12.0,0.,12.0,0.,12.0,0.,12.0
1981-08-29 10:15:42.130 ,0,0,0.,12.0,0.,12.0,0.,12.0,0.,12.0
1981-08-29 10:15:54.130 ,0,0,0.,12.0,0.,12.0,0.,12.0,0.,12.0
1981-08-29 10:16:06.130 ,7,0,0.,12.0,0.,12.0,0.,12.0,0.,12.0
1981-08-29 10:16:18.130 ,7,0,0.,12.0,0.,12.0,0.,12.0,0.,12.0
1981-08-29 10:16:30.130 ,6,0,0.,12.0,0.,12.0,0.,12.0,0.,12.0
1981-08-29 10:16:42.130 ,6,0,0.,12.0,0.,12.0,0.,12.0,0.,12.0
1981-08-29 10:16:54.130 ,5,0,0.,12.0,0.,12.0,0.,12.0,0.,12.0
1981-08-29 10:17:06.130 ,5,0,0.,12.0,0.,12.0,0.,12.0,0.,12.0
1981-08-29 10:17:18.130 ,4,0,0.,12.0,0.,12.0,0.,12.0,0.,12.0
1981-08-29 10:17:30.130 ,4,0,0.,12.0,0.,12.0,0.,12.0,0.,12.0
1981-08-29 10:17:42.130 ,3,0,0.,12.0,0.,12.0,0.,12.0,0.,12.0
1981-08-29 10:17:54.130 ,3,0,0.,12.0,0.,12.0,0.,12.0,0.,12.0
1981-08-29 10:18:06.130 ,2,0,0.,12.0,0.,12.0,0.,12.0,0.,12.0
1981-08-29 10:18:18.130 ,2,0,0.,12.0,0.,12.0,0.,12.0,0.,12.0
1981-08-29 10:18:30.130 ,1,0,0.,12.0,0.,12.0,0.,12.0,0.,12.0
1981-08-29 10:18:42.130 ,1,0,0.,12.0,0.,12.0,0.,12.0,0.,12.0
1981-08-29 10:18:54.130 ,0,0,1.,12.0,0.,12.0,0.,12.0,0.,12.0
1981-08-29 10:19:06.130 ,0,0,0.,12.0,0.,12.0,0.,12.0,0.,12.0
1981-08-29 10:19:18.130 ,0,0,0.,12.0,0.,12.0,0.,12.0,0.,12.0
1981-08-29 10:19:30.130 ,0,0,0.,12.0,0.,12.0,0.,12.0,0.,12.0
1981-08-29 10:19:42.130 ,1,0,0.,12.0,0.,12.0,0.,12.0,0.,12.0
1981-08-29 10:19:54.130 ,1,0,0.,12.0,0.,12.0,0.,12.0,0.,12.0
1981-08-29 10:20:06.130 ,2,0,0.,12.0,0.,12.0,0.,12.0,0.,12.0
1981-08-29 10:20:18.130 ,2,0,0.,12.0,0.,12.0,0.,12.0,0.,12.0
1981-08-29 10:20:30.130 ,3,0,0.,12.0,0.,12.0,0.,12.0,0.,12.0
1981-08-29 10:20:42.130 ,3,0,0.,12.0,0.,12.0,0.,12.0,0.,12.0
1981-08-29 10:20:54.130 ,4,0,0.,12.0,0.,12.0,0.,12.0,0.,12.0
1981-08-29 10:21:06.130 ,4,0,0.,12.0,0.,12.0,0.,12.0,0.,12.0
1981-08-29 10:21:18.130 ,5,0,0.,12.0,0.,12.0,0.,12.0,0.,12.0
1981-08-29 10:21:30.130 ,5,0,0.,12.0,0.,12.0,0.,12.0,0.,12.0